Tracking 27420 objects as of 28-May-2023
HD Live streaming from Space Station
objects crossing your sky now

STARLINK-5892

Track STARLINK-5892 now!
10-day predictions
STARLINK-5892 is classified as:


NORAD ID: 55954
Int'l Code: 2023-037AS
Perigee: 363.9 km
Apogee: 368.6 km
Inclination: 70.0 °
Period: 91.7 minutes
Semi major axis: 6737 km
RCS: Unknown
Launch date: March 17, 2023
Source: United States (US)
Launch site: AIR FORCE WESTERN TEST RANGE (AFWTR)
Your satellite tracking list
Your tracking list is empty




NASA's NSSDC Master Catalog

Two Line Element Set (TLE):
1 55954U 23037AS  23147.95609638  .00000718  00000-0  77434-5 0  9992
2 55954  69.9972 340.9051 0003434 268.4507  91.6296 15.69921976 11369
Source of the keplerian elements: AFSPC